SCP
0 0 0 0 0 -0 -0 0 0 0 0 0 0 0 0 0 0 0 0 0 0 0 0 0 0 0 0 0 0 0 0 0 0 0 0 0 0 0 0 0 0 0 0 0 0 0 0
-0 0 0 0 0 0 0 0 0 0 0 0 0 0 0 0 0 0 0 0 0 0 0 0 0 0 0 0 0 0 0 0 0 0 0 0 0 0 0 0 0 0 0 0 0 0 0
-0 -0 -0 -0 0 0 0 0 0 0 0 0 0 0 0 0 0 0 0 0 0 0 0 0 0 0 0 0 0 0 0 0 0 0 0 0 0 0 0 0 0 0 0 0 0 0 0
-0 -0 0 -0 -0 -0 0 0 0 0 0 0 0 0 0 0 0 0 0 0 0 0 0 0 0 0 0 0 0 0 0 0 0 0 0 0 0 0 0 0 0 0 0 0 0 0 0
-0 -0 -0 -0 0 0 0 0 0 0 0 0 0 0 0 0 0 0 0 0 0 0 0 0 0 0 0 0 0 0 0 0 0 0 0 0 0 0 0 0 0 0 0 0 0 0 0
0 0 0 0 0 0 0 0 0 0 0 0 0 0 0 0 0 0 0 0 0 0 0 0 0 0 0 0 0 0 0 0 0 0 0 0 0 0 0 0 0 0 0 0 0 0 0
0 0 0 0 0 0 0 0 0 0 0 0 0 0 0 0 0 0 0 0 0 0 0 0 0 0 0 0 0 0 0 0 0 0 0 0 0 0 0 0 0 0 0 0 0 0 0
0 0 0 0 0 0 0 0 0 0 0 0 0 0 0 0 0 0 0 0 0 0 0 0 0 0 0 0 0 0 0 0 0 0 0 0 0 0 0 0 0 0 0 0 0 0 0
0 0 0 0 0 0 0 0 0 0 0 0 0 0 0 0 0 0 0 0 0 0 0 0 0 0 0 0 0 0 0 0 0 0 0 0 0 0 0 0 0 0 0 0 0 0 0
0 0 0 0 0 0 0 0 0 0 0 0 0 0 0 0 0 0 0 0 0 0 0 0 0 0 0 0 0 0 0 0 0 0 0 0 0 0 0 0 0 0 0 0 0 0 0
0 0 0 0 0 0 0 0 0 0 0 0 0 0 0 0 0 0 0 0 0 0 0 0 0 0 0 0 0 0 0 0 0 0 0 0 0 0 0 0 0 0 0 0 0 0 0
0 0 0 0 0 0 0 0 0 0 0 0 0 0 0 0 0 0 0 0 0 0 0 0 0 0 0 0 0 0 0 0 0 0 0 0 0 0 0 0 0 0 0 0 0 0 0
0 0 0 0 0 0 0 0 0 0 0 0 0 0 0 0 0 0 0 0 0 0 0 0 0 0 0 0 0 0 0 0 0 0 0 0 0 0 0 0 0 0 0 0 0 0 0
0 0 0 0 0 0 0 0 0 0 0 0 0 0 0 0 0 0 0 0 0 0 0 0 0 0 0 0 0 0 0 0 0 0 0 0 0 0 0 0 0 0 0 0 0 0 0
0 0 0 0 0 0 0 0 0 0 0 0 0 0 0 0 0 0 0 0 0 0 0 0 0 0 0 0 0 0 0 0 0 0 0 0 0 0 0 0 0 0 0 0 0 0 0
0 0 0 0 0 0 0 0 0 0 0 0 0 0 0 0 0 0 0 0 0 0 0 0 0 0 0 0 0 0 0 0 0 0 0 0 0 0 0 0 0 0 0 0 0 0 0
0 0 0 0 0 0 0 0 0 0 0 0 0 0 0 0 0 0 0 0 0 0 0 0 0 0 0 0 0 0 0 0 0 0 0 0 0 0 0 0 0 0 0 0 0 0 0
0 0 0 0 0 0 0 0 0 0 0 0 0 0 0 0 0 0 0 0 0 0 0 0 0 0 0 0 0 0 0 0 0 0 0 0 0 0 0 0 0 0 0 0 0 0 0
0 0 0 0 0 0 0 0 0 0 0 0 0 0 0 0 0 0 0 0 0 0 0 0 0 0 0 0 0 0 0 0 0 0 0 0 0 0 0 0 0 0 0 0 0 0 0
0 0 0 0 0 0 0 0 0 0 0 0 0 0 0 0 0 0 0 0 0 0 0 0 0 0 0 0 0 0 0 0 0 0 0 0 0 0 0 0 0 0 0 0 0 0 0
0 0 0 0 0 0 0 0 0 0 0 0 0 0 0 0 0 0 0 0 0 0 0 0 0 0 0 0 0 0 0 0 0 0 0 0 0 0 0 0 0 0 0 0 0 0 0
0 0 0 0 0 0 0 0 0 0 0 0 0 0 0 0 0 0 0 0 0 0 0 0 0 0 0 0 0 0 0 0 0 0 0 0 0 0 0 0 0 0 0 0 0 0 0
0 0 0 0 0 0 0 0 0 0 0 0 0 0 0 0 0 0 0 0 0 0 0 0 0 0 0 0 0 0 0 0 0 0 0 0 0 0 0 0 0 0 0 0 0 0 0
0 0 0 0 0 0 0 0 0 0 0 0 0 0 0 0 0 0 0 0 0 0 0 0 0 0 0 0 0 0 0 0 0 0 0 0 0 0 0 0 0 0 0 0 0 0 0
0 0 0 0 0 0 0 0 0 0 0 0 0 0 0 0 0 0 0 0 0 0 0 0 0 0 0 0 0 0 -0 0 0 0 0 0 0 0 0 0 0 0 0 0 0 0 0
0 0 0 0 0 0 0 0 0 0 0 0 0 0 0 0 0 0 0 0 0 0 0 0 0 0 0 0 0 0 0 0 0 0 0 0 0 0 0 0 0 0 0 0 0 0 0
0 0 0 0 0 0 0 0 0 0 0 0 0 0 0 0 0 0 0 0 0 0 0 0 0 0 0 0 0 0 0 0 0 0 0 0 0 0 0 0 0 0 0 0 0 0 0
0 0 0 0 0 -0 -0 0 0 0 0 0 0 0 0 0 0 0 0 0 0 0 0 0 0 0 0 0 0 0 0 0 0 0 0 0 0 0 -0 0 0 0 0 0 0 0 0
0 0 0 0 -0 0 0 0 0 0 0 0 0 0 0 0 0 0 0 0 0 0 0 0 0 0 0 0 0 0 0 0 0 0 0 0 0 0 0 0 0 0 0 0 0 0 0
Wind_Speed_500mb
19 19 20 22 23 24 24 24 25 26 27 27 28 29 32 34 35 35 36 37 36 34 29 27 29 25 19 11 17 24 19 15 12 10 11 13 17 14 18 8 9 16 7 4 7 13 18
25 25 26 25 25 25 24 24 25 26 26 27 27 28 30 30 31 32 34 37 38 39 35 28 28 26 16 17 19 21 19 15 14 12 14 13 11 13 6 7 12 3 9 8 12 15 17
24 26 28 30 30 29 30 30 29 28 29 29 31 31 31 31 31 31 31 30 31 32 37 36 28 26 23 28 27 21 18 16 14 16 11 18 14 11 8 7 9 15 9 9 18 20 11
18 20 22 24 27 29 30 30 29 29 30 32 33 32 33 36 37 36 34 33 31 30 29 33 29 24 17 26 28 21 18 14 13 15 18 16 14 8 8 11 10 12 9 12 25 26 13
21 21 24 23 24 25 27 29 31 32 32 32 31 32 34 35 36 38 37 37 35 33 29 27 23 11 16 17 14 19 15 9 11 12 12 14 13 9 9 13 13 17 20 28 14 35 14
22 24 27 29 34 30 26 25 27 30 32 33 33 34 34 36 37 38 35 34 28 23 17 14 16 9 16 10 14 13 14 11 6 7 5 10 12 15 19 23 24 26 32 27 27 27 33
28 31 32 31 30 30 28 29 33 34 33 33 34 35 36 38 37 36 34 22 13 7 7 17 22 29 19 21 16 15 15 8 7 14 13 20 17 28 38 37 41 30 33 33 25 18 26
30 33 33 36 37 38 39 37 40 35 34 35 37 37 37 38 37 26 26 9 10 14 25 31 40 35 30 16 10 16 18 13 14 23 24 10 31 37 25 18 35 33 36 37 22 12 23
36 37 38 39 39 40 43 44 41 37 36 39 42 40 37 39 30 29 21 19 18 19 14 12 11 8 11 16 15 15 21 12 19 27 32 35 25 10 21 22 28 38 40 34 37 11 27
44 45 45 44 43 44 45 46 47 42 38 39 42 43 43 36 15 30 15 27 21 16 9 8 4 3 4 7 9 14 20 14 12 15 30 30 40 26 20 29 31 40 34 35 34 13 20
50 51 51 50 48 47 46 45 42 39 35 37 39 40 39 37 33 21 25 23 19 8 12 6 7 7 7 10 2 10 20 12 24 18 11 16 12 19 29 39 28 30 8 18 27 30 33
49 50 49 49 50 50 48 47 44 41 36 32 37 32 34 32 33 23 31 26 14 8 16 8 8 9 7 14 8 6 10 13 3 15 30 38 5 12 28 2 15 9 7 7 10 18 22
45 47 47 46 46 47 47 48 48 46 42 39 38 40 32 30 22 28 29 20 10 13 1 6 1 4 9 9 11 16 20 20 17 9 19 19 42 13 16 13 11 25 19 9 11 13 20
35 36 37 40 40 40 41 41 42 43 43 44 36 40 36 33 29 22 16 3 16 13 22 10 7 6 11 6 17 16 12 20 38 31 15 12 15 43 31 36 20 41 34 14 17 21 25
39 36 34 34 33 36 37 37 37 36 37 40 41 36 32 31 25 19 7 9 12 9 10 14 25 23 34 11 9 9 20 34 17 38 25 21 22 12 12 15 17 15 25 32 35 37 19
40 38 39 35 33 36 38 37 37 36 36 36 34 24 27 31 28 16 8 19 21 9 11 11 19 19 35 35 16 9 15 5 11 27 40 15 31 17 11 5 18 18 7 14 14 15 32
45 41 41 38 36 35 36 36 37 35 35 31 15 14 14 22 18 11 12 17 24 27 22 10 25 32 33 33 31 31 23 26 12 12 16 19 24 10 6 22 32 17 17 18 10 18 16
40 43 44 45 45 39 34 33 33 30 31 25 11 12 8 20 9 4 7 9 3 9 20 18 15 21 33 34 36 37 38 36 8 4 14 11 11 26 38 11 7 28 32 45 19 27 18
43 39 38 37 40 38 34 31 32 25 22 17 10 20 15 20 11 13 20 20 16 15 19 9 7 9 6 11 13 25 25 18 26 13 15 3 13 25 35 17 5 15 29 33 42 24 42
40 44 44 40 36 36 35 33 30 25 22 18 10 6 7 22 11 21 29 32 14 7 11 14 11 20 16 9 22 15 26 18 1 9 7 8 28 39 35 20 5 10 23 38 39 26 54
42 43 46 48 44 42 40 35 34 29 22 19 11 12 17 7 12 23 17 2 7 11 17 6 8 27 18 13 27 38 33 32 27 41 14 8 25 38 56 58 48 28 26 23 44 60 37
45 48 48 50 50 42 39 38 34 28 27 29 15 12 19 31 27 19 15 10 21 25 18 10 18 27 26 19 26 42 44 36 26 9 14 12 18 28 49 54 44 44 45 45 35 42 42
50 52 48 46 49 50 41 35 35 32 29 26 27 33 29 24 22 12 9 24 25 15 16 38 33 23 26 31 34 44 47 51 36 15 17 14 10 11 31 29 34 31 62 48 50 36 27
48 51 49 47 48 50 45 39 36 38 36 45 40 29 19 19 23 29 36 40 36 33 29 26 31 12 19 29 44 49 57 59 47 49 44 20 23 13 21 7 15 13 6 3 25 43 40
50 51 51 48 49 48 48 42 39 41 40 42 53 42 21 12 24 24 31 32 34 29 29 38 34 33 28 20 9 14 12 8 15 25 24 29 21 9 10 19 18 26 5 5 4 4 13
52 53 53 55 49 47 46 46 44 44 45 42 48 54 42 14 22 47 42 37 23 21 13 13 21 21 10 5 6 9 16 19 10 6 3 4 2 5 6 11 10 14 15 19 7 5 20
56 54 54 48 48 49 48 48 46 46 46 43 46 45 51 26 29 22 12 11 8 3 5 9 5 3 9 5 9 10 15 3 9 14 10 5 3 19 23 16 4 13 22 25 10 7 27
57 53 53 49 46 48 51 48 46 46 43 41 45 47 48 17 25 23 32 17 10 10 7 5 9 6 6 7 5 6 9 3 7 4 7 5 5 4 6 7 10 29 9 7 13 19 13
53 52 50 47 41 37 34 37 40 44 45 38 44 44 45 44 15 17 35 37 37 31 13 13 6 2 7 6 5 6 7 7 13 7 4 3 7 7 6 7 7 12 8 14 17 7 11
Wind_Direction_500mb
43 39 31 21 16 10 6 3 1 359 357 357 357 355 352 349 347 344 340 337 334 330 327 323 319 320 323 280 257 279 278 280 268 251 250 248 243 235 241 233 210 242 179 164 156 167 184
35 32 30 26 19 13 8 3 357 354 351 349 349 347 346 345 344 342 339 336 333 329 322 318 316 315 320 272 270 274 276 274 268 252 244 237 268 239 253 237 244 110 184 169 169 164 171
36 32 26 19 14 12 10 4 359 354 348 346 344 343 340 337 335 333 333 329 325 322 318 313 310 310 291 265 275 278 271 274 258 244 244 236 233 224 191 188 160 154 175 207 202 188 177
9 10 10 7 6 3 359 360 359 355 349 345 343 341 339 335 332 330 329 323 318 312 307 302 303 306 270 271 276 270 275 269 254 239 233 217 191 203 250 135 159 212 242 229 170 179 176
338 335 338 337 342 344 346 346 346 348 347 345 341 340 337 333 331 329 329 321 317 305 295 289 292 280 269 290 278 269 259 262 243 231 220 201 170 220 169 219 223 210 251 221 198 198 158
318 318 319 322 327 329 328 331 333 333 334 337 339 340 337 332 330 328 330 324 317 306 294 287 259 266 240 239 264 257 249 234 252 216 188 197 220 220 223 219 232 239 228 256 232 195 208
310 313 316 315 313 314 316 318 325 323 325 328 330 335 339 337 334 333 341 345 338 303 291 234 276 258 279 258 249 229 224 225 225 225 227 205 230 223 229 232 256 286 280 247 249 152 204
299 303 308 310 309 309 309 307 311 312 315 321 324 327 332 335 338 340 350 15 7 306 301 267 260 246 246 244 269 231 214 185 207 238 222 214 238 249 274 292 243 253 260 257 255 166 218
300 302 303 303 304 305 305 306 307 307 311 316 318 321 329 336 341 347 355 2 341 336 266 273 243 233 216 226 244 242 198 202 229 249 237 247 258 356 237 244 237 242 247 254 253 175 238
299 301 302 303 304 305 306 308 309 311 312 315 320 320 327 337 343 344 339 338 335 336 277 200 168 218 178 187 222 206 202 220 204 260 256 261 267 248 238 240 230 252 243 253 266 225 254
296 296 297 299 303 305 306 309 309 307 303 312 316 318 326 338 333 342 330 327 320 334 298 84 154 194 203 216 72 191 201 197 243 221 186 236 245 235 245 247 234 260 308 248 243 247 262
295 293 294 297 297 299 302 304 307 309 302 304 302 304 315 322 327 331 333 323 308 241 242 207 165 169 201 206 214 144 196 203 260 259 237 248 267 263 238 340 244 108 161 182 235 251 248
298 299 300 298 299 300 299 299 298 299 302 295 290 295 298 306 306 314 327 328 272 237 221 170 326 209 256 218 216 206 195 200 202 203 233 236 232 211 205 205 196 206 191 230 230 211 252
321 315 308 307 305 304 300 298 298 299 297 294 297 288 282 282 290 302 342 324 246 295 280 57 340 273 253 290 232 211 240 247 223 235 276 257 255 197 200 218 195 202 207 209 246 235 265
310 316 316 310 308 312 313 310 304 300 297 294 291 287 284 281 280 266 171 213 250 252 330 340 314 277 281 219 262 241 236 250 261 200 215 247 244 140 218 187 212 172 223 245 280 275 267
293 302 307 310 312 311 308 309 311 309 300 295 294 288 269 268 264 219 206 234 238 224 300 265 280 283 289 299 283 261 263 310 253 242 226 270 281 176 153 206 239 233 289 202 214 252 252
281 283 291 295 300 306 306 308 303 306 310 310 304 280 247 235 202 183 234 246 272 258 255 269 262 265 277 282 274 280 276 307 296 348 257 251 241 209 153 200 201 195 217 224 282 228 257
291 283 282 285 289 295 299 308 313 303 311 322 278 259 273 205 193 211 228 230 279 274 273 240 240 248 264 266 279 275 266 262 26 313 287 258 280 262 247 193 260 250 235 217 226 228 239
290 287 286 286 285 285 285 295 305 290 303 297 259 265 230 203 246 225 229 251 241 262 259 277 277 248 307 276 276 249 277 303 312 266 262 279 241 265 245 202 183 231 224 236 238 256 255
292 289 284 284 288 286 284 288 296 293 285 282 278 242 202 212 246 260 274 276 274 255 245 237 235 259 247 229 243 264 275 285 341 287 318 280 250 255 251 251 355 228 229 224 223 224 246
286 291 290 282 281 281 280 279 283 292 263 263 241 257 256 202 224 231 250 238 235 256 224 261 254 251 255 265 288 276 275 276 268 258 234 232 254 249 260 265 269 260 268 272 224 239 242
295 288 290 286 274 277 275 268 270 275 258 255 260 256 260 270 269 225 213 197 245 243 235 236 232 272 283 270 267 289 293 284 272 266 247 185 260 255 256 256 255 253 253 251 256 256 252
290 294 283 285 281 272 275 268 256 259 254 249 257 262 263 266 277 258 208 236 252 254 243 248 275 292 276 273 279 278 279 277 262 261 210 191 233 247 257 264 254 257 238 237 240 238 240
289 290 292 281 283 272 266 267 258 251 256 248 252 268 267 270 258 261 255 259 262 269 255 263 288 242 268 278 295 288 260 258 253 250 234 237 228 244 271 282 233 261 63 255 239 248 231
287 286 291 284 277 277 265 266 257 251 254 258 253 252 258 260 264 278 275 272 283 270 267 269 265 260 274 311 281 289 274 254 237 234 229 225 245 245 247 242 285 289 40 331 252 60 24
282 284 286 285 273 270 263 259 257 253 250 255 255 246 252 267 237 255 267 269 271 267 265 238 270 270 274 248 252 272 289 308 290 258 102 316 300 290 241 266 254 39 10 344 282 240 10
278 282 286 284 282 271 263 261 258 251 246 251 259 253 248 259 258 233 231 245 194 204 260 259 256 278 186 242 251 253 273 328 278 313 351 354 235 235 247 261 283 2 349 330 248 11 347
272 279 285 278 283 277 267 257 255 244 247 251 264 255 241 265 259 223 234 228 220 202 256 282 278 187 190 242 256 277 267 293 287 241 280 262 274 237 230 249 264 5 343 12 317 334 354
265 275 282 271 278 276 272 256 245 247 255 253 255 254 245 245 258 249 236 238 241 245 251 217 287 157 267 283 252 285 274 273 286 272 132 255 359 317 11 3 7 10 45 341 331 343 85
Wind_Speed_850mb
19 19 20 22 23 24 24 24 25 26 27 27 28 29 32 34 35 35 36 37 36 34 29 27 29 25 19 11 17 24 19 15 12 10 11 13 17 14 18 8 9 16 7 4 7 13 18
25 25 26 25 25 25 24 24 25 26 26 27 27 28 30 30 31 32 34 37 38 39 35 28 28 26 16 17 19 21 19 15 14 12 14 13 11 13 6 7 12 3 9 8 12 15 17
24 26 28 30 30 29 30 30 29 28 29 29 31 31 31 31 31 31 31 30 31 32 37 36 28 26 23 28 27 21 18 16 14 16 11 18 14 11 8 7 9 15 9 9 18 20 11
18 20 22 24 27 29 30 30 29 29 30 32 33 32 33 36 37 36 34 33 31 30 29 33 29 24 17 26 28 21 18 14 13 15 18 16 14 8 8 11 10 12 9 12 25 26 13
21 21 24 23 24 25 27 29 31 32 32 32 31 32 34 35 36 38 37 37 35 33 29 27 23 11 16 17 14 19 15 9 11 12 12 14 13 9 9 13 13 17 20 28 14 35 14
22 24 27 29 34 30 26 25 27 30 32 33 33 34 34 36 37 38 35 34 28 23 17 14 16 9 16 10 14 13 14 11 6 7 5 10 12 15 19 23 24 26 32 27 27 27 33
28 31 32 31 30 30 28 29 33 34 33 33 34 35 36 38 37 36 34 22 13 7 7 17 22 29 19 21 16 15 15 8 7 14 13 20 17 28 38 37 41 30 33 33 25 18 26
30 33 33 36 37 38 39 37 40 35 34 35 37 37 37 38 37 26 26 9 10 14 25 31 40 35 30 16 10 16 18 13 14 23 24 10 31 37 25 18 35 33 36 37 22 12 23
36 37 38 39 39 40 43 44 41 37 36 39 42 40 37 39 30 29 21 19 18 19 14 12 11 8 11 16 15 15 21 12 19 27 32 35 25 10 21 22 28 38 40 34 37 11 27
44 45 45 44 43 44 45 46 47 42 38 39 42 43 43 36 15 30 15 27 21 16 9 8 4 3 4 7 9 14 20 14 12 15 30 30 40 26 20 29 31 40 34 35 34 13 20
50 51 51 50 48 47 46 45 42 39 35 37 39 40 39 37 33 21 25 23 19 8 12 6 7 7 7 10 2 10 20 12 24 18 11 16 12 19 29 39 28 30 8 18 27 30 33
49 50 49 49 50 50 48 47 44 41 36 32 37 32 34 32 33 23 31 26 14 8 16 8 8 9 7 14 8 6 10 13 3 15 30 38 5 12 28 2 15 9 7 7 10 18 22
45 47 47 46 46 47 47 48 48 46 42 39 38 40 32 30 22 28 29 20 10 13 1 6 1 4 9 9 11 16 20 20 17 9 19 19 42 13 16 13 11 25 19 9 11 13 20
35 36 37 40 40 40 41 41 42 43 43 44 36 40 36 33 29 22 16 3 16 13 22 10 7 6 11 6 17 16 12 20 38 31 15 12 15 43 31 36 20 41 34 14 17 21 25
39 36 34 34 33 36 37 37 37 36 37 40 41 36 32 31 25 19 7 9 12 9 10 14 25 23 34 11 9 9 20 34 17 38 25 21 22 12 12 15 17 15 25 32 35 37 19
40 38 39 35 33 36 38 37 37 36 36 36 34 24 27 31 28 16 8 19 21 9 11 11 19 19 35 35 16 9 15 5 11 27 40 15 31 17 11 5 18 18 7 14 14 15 32
45 41 41 38 36 35 36 36 37 35 35 31 15 14 14 22 18 11 12 17 24 27 22 10 25 32 33 33 31 31 23 26 12 12 16 19 24 10 6 22 32 17 17 18 10 18 16
40 43 44 45 45 39 34 33 33 30 31 25 11 12 8 20 9 4 7 9 3 9 20 18 15 21 33 34 36 37 38 36 8 4 14 11 11 26 38 11 7 28 32 45 19 27 18
43 39 38 37 40 38 34 31 32 25 22 17 10 20 15 20 11 13 20 20 16 15 19 9 7 9 6 11 13 25 25 18 26 13 15 3 13 25 35 17 5 15 29 33 42 24 42
40 44 44 40 36 36 35 33 30 25 22 18 10 6 7 22 11 21 29 32 14 7 11 14 11 20 16 9 22 15 26 18 1 9 7 8 28 39 35 20 5 10 23 38 39 26 54
42 43 46 48 44 42 40 35 34 29 22 19 11 12 17 7 12 23 17 2 7 11 17 6 8 27 18 13 27 38 33 32 27 41 14 8 25 38 56 58 48 28 26 23 44 60 37
45 48 48 50 50 42 39 38 34 28 27 29 15 12 19 31 27 19 15 10 21 25 18 10 18 27 26 19 26 42 44 36 26 9 14 12 18 28 49 54 44 44 45 45 35 42 42
50 52 48 46 49 50 41 35 35 32 29 26 27 33 29 24 22 12 9 24 25 15 16 38 33 23 26 31 34 44 47 51 36 15 17 14 10 11 31 29 34 31 62 48 50 36 27
48 51 49 47 48 50 45 39 36 38 36 45 40 29 19 19 23 29 36 40 36 33 29 26 31 12 19 29 44 49 57 59 47 49 44 20 23 13 21 7 15 13 6 3 25 43 40
50 51 51 48 49 48 48 42 39 41 40 42 53 42 21 12 24 24 31 32 34 29 29 38 34 33 28 20 9 14 12 8 15 25 24 29 21 9 10 19 18 26 5 5 4 4 13
52 53 53 55 49 47 46 46 44 44 45 42 48 54 42 14 22 47 42 37 23 21 13 13 21 21 10 5 6 9 16 19 10 6 3 4 2 5 6 11 10 14 15 19 7 5 20
56 54 54 48 48 49 48 48 46 46 46 43 46 45 51 26 29 22 12 11 8 3 5 9 5 3 9 5 9 10 15 3 9 14 10 5 3 19 23 16 4 13 22 25 10 7 27
57 53 53 49 46 48 51 48 46 46 43 41 45 47 48 17 25 23 32 17 10 10 7 5 9 6 6 7 5 6 9 3 7 4 7 5 5 4 6 7 10 29 9 7 13 19 13
53 52 50 47 41 37 34 37 40 44 45 38 44 44 45 44 15 17 35 37 37 31 13 13 6 2 7 6 5 6 7 7 13 7 4 3 7 7 6 7 7 12 8 14 17 7 11
Wind_Direction_850mb
43 39 31 21 16 10 6 3 1 359 357 357 357 355 352 349 347 344 340 337 334 330 327 323 319 320 323 280 257 279 278 280 268 251 250 248 243 235 241 233 210 242 179 164 156 167 184
35 32 30 26 19 13 8 3 357 354 351 349 349 347 346 345 344 342 339 336 333 329 322 318 316 315 320 272 270 274 276 274 268 252 244 237 268 239 253 237 244 110 184 169 169 164 171
36 32 26 19 14 12 10 4 359 354 348 346 344 343 340 337 335 333 333 329 325 322 318 313 310 310 291 265 275 278 271 274 258 244 244 236 233 224 191 188 160 154 175 207 202 188 177
9 10 10 7 6 3 359 360 359 355 349 345 343 341 339 335 332 330 329 323 318 312 307 302 303 306 270 271 276 270 275 269 254 239 233 217 191 203 250 135 159 212 242 229 170 179 176
338 335 338 337 342 344 346 346 346 348 347 345 341 340 337 333 331 329 329 321 317 305 295 289 292 280 269 290 278 269 259 262 243 231 220 201 170 220 169 219 223 210 251 221 198 198 158
318 318 319 322 327 329 328 331 333 333 334 337 339 340 337 332 330 328 330 324 317 306 294 287 259 266 240 239 264 257 249 234 252 216 188 197 220 220 223 219 232 239 228 256 232 195 208
310 313 316 315 313 314 316 318 325 323 325 328 330 335 339 337 334 333 341 345 338 303 291 234 276 258 279 258 249 229 224 225 225 225 227 205 230 223 229 232 256 286 280 247 249 152 204
299 303 308 310 309 309 309 307 311 312 315 321 324 327 332 335 338 340 350 15 7 306 301 267 260 246 246 244 269 231 214 185 207 238 222 214 238 249 274 292 243 253 260 257 255 166 218
300 302 303 303 304 305 305 306 307 307 311 316 318 321 329 336 341 347 355 2 341 336 266 273 243 233 216 226 244 242 198 202 229 249 237 247 258 356 237 244 237 242 247 254 253 175 238
299 301 302 303 304 305 306 308 309 311 312 315 320 320 327 337 343 344 339 338 335 336 277 200 168 218 178 187 222 206 202 220 204 260 256 261 267 248 238 240 230 252 243 253 266 225 254
296 296 297 299 303 305 306 309 309 307 303 312 316 318 326 338 333 342 330 327 320 334 298 84 154 194 203 216 72 191 201 197 243 221 186 236 245 235 245 247 234 260 308 248 243 247 262
295 293 294 297 297 299 302 304 307 309 302 304 302 304 315 322 327 331 333 323 308 241 242 207 165 169 201 206 214 144 196 203 260 259 237 248 267 263 238 340 244 108 161 182 235 251 248
298 299 300 298 299 300 299 299 298 299 302 295 290 295 298 306 306 314 327 328 272 237 221 170 326 209 256 218 216 206 195 200 202 203 233 236 232 211 205 205 196 206 191 230 230 211 252
321 315 308 307 305 304 300 298 298 299 297 294 297 288 282 282 290 302 342 324 246 295 280 57 340 273 253 290 232 211 240 247 223 235 276 257 255 197 200 218 195 202 207 209 246 235 265
310 316 316 310 308 312 313 310 304 300 297 294 291 287 284 281 280 266 171 213 250 252 330 340 314 277 281 219 262 241 236 250 261 200 215 247 244 140 218 187 212 172 223 245 280 275 267
293 302 307 310 312 311 308 309 311 309 300 295 294 288 269 268 264 219 206 234 238 224 300 265 280 283 289 299 283 261 263 310 253 242 226 270 281 176 153 206 239 233 289 202 214 252 252
281 283 291 295 300 306 306 308 303 306 310 310 304 280 247 235 202 183 234 246 272 258 255 269 262 265 277 282 274 280 276 307 296 348 257 251 241 209 153 200 201 195 217 224 282 228 257
291 283 282 285 289 295 299 308 313 303 311 322 278 259 273 205 193 211 228 230 279 274 273 240 240 248 264 266 279 275 266 262 26 313 287 258 280 262 247 193 260 250 235 217 226 228 239
290 287 286 286 285 285 285 295 305 290 303 297 259 265 230 203 246 225 229 251 241 262 259 277 277 248 307 276 276 249 277 303 312 266 262 279 241 265 245 202 183 231 224 236 238 256 255
292 289 284 284 288 286 284 288 296 293 285 282 278 242 202 212 246 260 274 276 274 255 245 237 235 259 247 229 243 264 275 285 341 287 318 280 250 255 251 251 355 228 229 224 223 224 246
286 291 290 282 281 281 280 279 283 292 263 263 241 257 256 202 224 231 250 238 235 256 224 261 254 251 255 265 288 276 275 276 268 258 234 232 254 249 260 265 269 260 268 272 224 239 242
295 288 290 286 274 277 275 268 270 275 258 255 260 256 260 270 269 225 213 197 245 243 235 236 232 272 283 270 267 289 293 284 272 266 247 185 260 255 256 256 255 253 253 251 256 256 252
290 294 283 285 281 272 275 268 256 259 254 249 257 262 263 266 277 258 208 236 252 254 243 248 275 292 276 273 279 278 279 277 262 261 210 191 233 247 257 264 254 257 238 237 240 238 240
289 290 292 281 283 272 266 267 258 251 256 248 252 268 267 270 258 261 255 259 262 269 255 263 288 242 268 278 295 288 260 258 253 250 234 237 228 244 271 282 233 261 63 255 239 248 231
287 286 291 284 277 277 265 266 257 251 254 258 253 252 258 260 264 278 275 272 283 270 267 269 265 260 274 311 281 289 274 254 237 234 229 225 245 245 247 242 285 289 40 331 252 60 24
282 284 286 285 273 270 263 259 257 253 250 255 255 246 252 267 237 255 267 269 271 267 265 238 270 270 274 248 252 272 289 308 290 258 102 316 300 290 241 266 254 39 10 344 282 240 10
278 282 286 284 282 271 263 261 258 251 246 251 259 253 248 259 258 233 231 245 194 204 260 259 256 278 186 242 251 253 273 328 278 313 351 354 235 235 247 261 283 2 349 330 248 11 347
272 279 285 278 283 277 267 257 255 244 247 251 264 255 241 265 259 223 234 228 220 202 256 282 278 187 190 242 256 277 267 293 287 241 280 262 274 237 230 249 264 5 343 12 317 334 354
265 275 282 271 278 276 272 256 245 247 255 253 255 254 245 245 258 249 236 238 241 245 251 217 287 157 267 283 252 285 274 273 286 272 132 255 359 317 11 3 7 10 45 341 331 343 85